When you browse on this site, cookies collect data to enhance your experience and personalize the content and advertising you see.
Visit our Privacy Policy to learn more. By continuing to use the site, you agree to this use of cookies and data.
  • In Österreich
  • Länderverzeichnis
  • Für 7 Tage
  • Wassertemperatur
  • Satellitenkarten
  • Wetterkarte
  • News
  • Widgets
  • user-avatar
    Anmelden

    Stündliche Wetter Jechegnadsor

    Heute, 20 April, Samstag

    Zeit Temperatur Niederschläge Wind Luftdruck Luftfeuchtigkeit
    00:00 +6°C° 0.7 mm 2 m/S 647 mmHg 77%
    01:00 +5°C° 0.9 mm 2 m/S 647 mmHg 78%
    02:00 +5°C° 0.9 mm 2 m/S 647 mmHg 79%
    03:00 +5°C° 0 mm 1 m/S 646 mmHg 80%
    04:00 +5°C° 0.7 mm 1 m/S 646 mmHg 81%
    05:00 +5°C° 0.7 mm 1 m/S 647 mmHg 82%
    06:00 +5°C° 0.7 mm 1 m/S 647 mmHg 83%
    07:00 +5°C° 0.5 mm 1 m/S 647 mmHg 81%
    08:00 +5°C° 0.5 mm 1 m/S 648 mmHg 79%
    09:00 +6°C° 0.5 mm 1 m/S 648 mmHg 77%
    10:00 +6°C° 0.4 mm 1 m/S 648 mmHg 76%
    11:00 +7°C° 0.4 mm 1 m/S 649 mmHg 75%
    12:00 +7°C° 0.4 mm 1 m/S 649 mmHg 74%
    13:00 +6°C° 0.3 mm 2 m/S 649 mmHg 73%
    14:00 +7°C° 0.3 mm 2 m/S 649 mmHg 72%
    15:00 +7°C° 0.3 mm 2 m/S 648 mmHg 71%
    16:00 +7°C° 0.2 mm 2 m/S 649 mmHg 71%
    17:00 +8°C° 0.2 mm 1 m/S 649 mmHg 71%
    18:00 +8°C° 0.2 mm 1 m/S 649 mmHg 71%
    19:00 +7°C° 0.1 mm 1 m/S 649 mmHg 73%
    20:00 +6°C° 0.1 mm 1 m/S 649 mmHg 75%
    21:00 +5°C° 0.1 mm 1 m/S 650 mmHg 77%
    22:00 +5°C° 0 mm 1 m/S 650 mmHg 77%
    23:00 +4°C° 0 mm 1 m/S 650 mmHg 77%

    Morgen, 21 April, Sonntag

    Zeit Temperatur Niederschläge Wind Luftdruck Luftfeuchtigkeit
    00:00 +4°C° 0 mm 1 m/S 650 mmHg 77%
    01:00 +4°C° 0 mm 1 m/S 650 mmHg 77%
    02:00 +4°C° 0 mm 1 m/S 650 mmHg 77%
    03:00 +3°C° 0 mm 1 m/S 650 mmHg 76%
    04:00 +4°C° 0.1 mm 1 m/S 650 mmHg 76%
    05:00 +4°C° 0.1 mm 1 m/S 650 mmHg 75%
    06:00 +4°C° 0.1 mm 1 m/S 650 mmHg 74%
    07:00 +5°C° 0 mm 1 m/S 650 mmHg 70%
    08:00 +7°C° 0 mm 1 m/S 651 mmHg 67%
    09:00 +8°C° 0 mm 1 m/S 651 mmHg 63%
    10:00 +7°C° 0.1 mm 2 m/S 651 mmHg 62%
    11:00 +8°C° 0.1 mm 2 m/S 651 mmHg 62%
    12:00 +9°C° 0.1 mm 2 m/S 650 mmHg 62%
    13:00 +9°C° 0.3 mm 2 m/S 650 mmHg 60%
    14:00 +10°C° 0.3 mm 2 m/S 650 mmHg 59%
    15:00 +10°C° 0.3 mm 2 m/S 650 mmHg 58%
    16:00 +9°C° 0.3 mm 2 m/S 650 mmHg 58%
    17:00 +9°C° 0.3 mm 2 m/S 650 mmHg 59%
    18:00 +9°C° 0.3 mm 2 m/S 649 mmHg 59%
    19:00 +7°C° 0 mm 2 m/S 650 mmHg 63%
    20:00 +6°C° 0 mm 2 m/S 650 mmHg 67%
    21:00 +4°C° 0 mm 3 m/S 650 mmHg 70%
    22:00 +3°C° 0 mm 3 m/S 650 mmHg 70%
    23:00 +3°C° 0 mm 3 m/S 650 mmHg 71%

    übermorgen, 22 April, Montag

    Zeit Temperatur Niederschläge Wind Luftdruck Luftfeuchtigkeit
    00:00 +2°C° 0 mm 3 m/S 650 mmHg 71%
    01:00 +2°C° 0 mm 3 m/S 650 mmHg 71%
    02:00 +1°C° 0 mm 3 m/S 649 mmHg 70%
    03:00 +1°C° 0 mm 3 m/S 649 mmHg 70%
    04:00 +1°C° 0 mm 3 m/S 649 mmHg 70%
    05:00 +1°C° 0 mm 3 m/S 649 mmHg 69%
    06:00 +1°C° 0 mm 3 m/S 649 mmHg 69%
    07:00 +3°C° 0 mm 3 m/S 649 mmHg 65%
    08:00 +4°C° 0 mm 3 m/S 649 mmHg 62%
    09:00 +7°C° 0 mm 3 m/S 650 mmHg 58%
    10:00 +7°C° 0.1 mm 3 m/S 650 mmHg 58%
    11:00 +8°C° 0.1 mm 3 m/S 649 mmHg 57%
    12:00 +8°C° 0.1 mm 3 m/S 649 mmHg 56%
    13:00 +8°C° 0.1 mm 3 m/S 649 mmHg 56%
    14:00 +8°C° 0.1 mm 3 m/S 649 mmHg 56%
    15:00 +8°C° 0.1 mm 3 m/S 649 mmHg 56%
    16:00 +8°C° 0.3 mm 2 m/S 649 mmHg 59%
    17:00 +7°C° 0.3 mm 2 m/S 649 mmHg 63%
    18:00 +6°C° 0.3 mm 2 m/S 649 mmHg 66%
    19:00 +5°C° 0.4 mm 2 m/S 650 mmHg 68%
    20:00 +5°C° 0.4 mm 2 m/S 651 mmHg 71%
    21:00 +4°C° 0.4 mm 2 m/S 651 mmHg 74%
    22:00 +4°C° 0.2 mm 2 m/S 651 mmHg 75%
    23:00 +4°C° 0.2 mm 1 m/S 652 mmHg 76%

    23 April, Dienstag

    Zeit Temperatur Niederschläge Wind Luftdruck Luftfeuchtigkeit
    00:00 +4°C° 0.2 mm 1 m/S 652 mmHg 77%
    01:00 +4°C° 0.1 mm 1 m/S 652 mmHg 77%
    02:00 +3°C° 0.1 mm 1 m/S 652 mmHg 78%
    03:00 +3°C° 0.1 mm 1 m/S 652 mmHg 79%
    04:00 +3°C° 0.1 mm 1 m/S 652 mmHg 78%
    05:00 +3°C° 0.1 mm 1 m/S 652 mmHg 77%
    06:00 +2°C° 0.1 mm 2 m/S 653 mmHg 77%
    07:00 +3°C° 0.1 mm 2 m/S 653 mmHg 73%
    08:00 +4°C° 0.1 mm 2 m/S 654 mmHg 70%
    09:00 +5°C° 0.1 mm 2 m/S 654 mmHg 66%
    10:00 +6°C° 0.1 mm 2 m/S 654 mmHg 65%
    11:00 +7°C° 0.1 mm 2 m/S 654 mmHg 64%
    12:00 +7°C° 0.1 mm 2 m/S 654 mmHg 62%
    13:00 +8°C° 0.2 mm 2 m/S 654 mmHg 62%
    14:00 +8°C° 0.2 mm 2 m/S 654 mmHg 62%
    15:00 +8°C° 0.2 mm 2 m/S 654 mmHg 61%
    16:00 +8°C° 0.1 mm 2 m/S 654 mmHg 63%
    17:00 +8°C° 0.1 mm 1 m/S 654 mmHg 64%
    18:00 +8°C° 0.1 mm 1 m/S 654 mmHg 66%
    19:00 +7°C° 0 mm 1 m/S 654 mmHg 68%
    20:00 +6°C° 0 mm 1 m/S 654 mmHg 69%
    21:00 +5°C° 0 mm 1 m/S 655 mmHg 71%
    22:00 +4°C° 0 mm 1 m/S 655 mmHg 70%
    23:00 +4°C° 0 mm 1 m/S 655 mmHg 70%

    24 April, Mittwoch

    Zeit Temperatur Niederschläge Wind Luftdruck Luftfeuchtigkeit
    00:00 +3°C° 0 mm 1 m/S 655 mmHg 69%
    01:00 +3°C° 0 mm 1 m/S 655 mmHg 70%
    02:00 +3°C° 0 mm 1 m/S 655 mmHg 70%
    03:00 +3°C° 0 mm 1 m/S 655 mmHg 70%
    04:00 +3°C° 0 mm 1 m/S 655 mmHg 71%
    05:00 +3°C° 0 mm 1 m/S 655 mmHg 71%
    06:00 +4°C° 0 mm 1 m/S 656 mmHg 71%
    07:00 +5°C° 0 mm 1 m/S 656 mmHg 68%
    08:00 +5°C° 0 mm 2 m/S 656 mmHg 64%
    09:00 +6°C° 0 mm 2 m/S 656 mmHg 61%
    10:00 +7°C° 0.1 mm 2 m/S 656 mmHg 59%
    11:00 +8°C° 0.1 mm 2 m/S 656 mmHg 57%
    12:00 +9°C° 0.1 mm 2 m/S 656 mmHg 56%
    13:00 +9°C° 0.1 mm 2 m/S 655 mmHg 55%
    14:00 +9°C° 0.1 mm 3 m/S 655 mmHg 55%
    15:00 +10°C° 0.1 mm 3 m/S 655 mmHg 54%
    16:00 +9°C° 0.1 mm 2 m/S 655 mmHg 56%
    17:00 +8°C° 0.1 mm 2 m/S 655 mmHg 58%
    18:00 +8°C° 0.1 mm 2 m/S 655 mmHg 60%
    19:00 +7°C° 0.1 mm 2 m/S 655 mmHg 62%
    20:00 +6°C° 0.1 mm 2 m/S 655 mmHg 65%
    21:00 +6°C° 0.1 mm 2 m/S 656 mmHg 67%
    22:00 +5°C° 0.1 mm 2 m/S 656 mmHg 67%
    23:00 +5°C° 0.1 mm 2 m/S 656 mmHg 67%

    25 April, Donnerstag

    Zeit Temperatur Niederschläge Wind Luftdruck Luftfeuchtigkeit
    00:00 +5°C° 0.1 mm 2 m/S 656 mmHg 67%
    01:00 +4°C° 0.1 mm 2 m/S 656 mmHg 68%
    02:00 +4°C° 0.1 mm 2 m/S 656 mmHg 68%
    03:00 +3°C° 0.1 mm 2 m/S 656 mmHg 69%
    04:00 +3°C° 0 mm 2 m/S 656 mmHg 69%
    05:00 +3°C° 0 mm 2 m/S 656 mmHg 69%
    06:00 +3°C° 0 mm 2 m/S 656 mmHg 69%
    07:00 +4°C° 0 mm 2 m/S 656 mmHg 64%
    08:00 +7°C° 0 mm 1 m/S 657 mmHg 60%
    09:00 +8°C° 0 mm 1 m/S 657 mmHg 55%
    10:00 +9°C° 0 mm 1 m/S 657 mmHg 54%
    11:00 +8°C° 0 mm 2 m/S 656 mmHg 53%
    12:00 +9°C° 0 mm 2 m/S 656 mmHg 52%
    13:00 +9°C° 0.1 mm 2 m/S 656 mmHg 52%
    14:00 +9°C° 0.1 mm 2 m/S 655 mmHg 52%
    15:00 +10°C° 0.1 mm 2 m/S 655 mmHg 52%
    16:00 +9°C° 0.1 mm 2 m/S 655 mmHg 53%
    17:00 +9°C° 0.1 mm 1 m/S 655 mmHg 54%
    18:00 +9°C° 0.1 mm 1 m/S 655 mmHg 55%
    19:00 +7°C° 0 mm 2 m/S 655 mmHg 58%
    20:00 +5°C° 0 mm 2 m/S 655 mmHg 61%
    21:00 +4°C° 0 mm 2 m/S 655 mmHg 64%
    22:00 +4°C° 0 mm 2 m/S 655 mmHg 63%
    23:00 +4°C° 0 mm 2 m/S 655 mmHg 62%
    Mehr zeigen